Regional Weather Roundup
Issued by NWS Newport/Morehead, NC

Current Version | Previous Version | Graphics & Text | Print | Product List | Glossary Off
Versions: 1 2 3 4 5 6 7 8 9 10 11 12 13 14 15 16 17 18 19 20 21 22 23 24 25 26 27 28 29 30 31 32 33 34 35 36 37 38 39 40 41 42 43 44 45 46 47 48 49 50

000
ASUS42 KMHX 160825
RWRMHX
WEATHER ROUNDUP FOR EASTERN NORTH CAROLINA
NATIONAL WEATHER SERVICE NEWPORT/MOREHEAD CITY NC
300 AM EST TUE JAN 16 2018

NOTE: "FAIR" INDICATES FEW OR NO CLOUDS BELOW 12,000 FEET
WITH NO SIGNIFICANT WEATHER AND/OR OBSTRUCTIONS TO VISIBILITY

NCZ015>017-031-032-045>047-102-103-160900-
NORTH COAST

CITY           SKY/WX    TMP DP  RH WIND       PRES   REMARKS
EDENTON        FOG       29  28  96 N7        30.45R VSB 3/4
ELIZABETH CITY FOG       32  32 100 N9        30.44R VSB 1/4
KITTY HAWK     FOG      N/A N/A N/A MISG      30.40R VSB 1/2
MANTEO         FOG       35  35 100 N7        30.42R VSB 1/2

$$

NCZ045>047-081-094-103-104-160900-
CENTRAL COAST

CITY           SKY/WX    TMP DP  RH WIND       PRES   REMARKS
FRISCO         NOT AVBL

$$

NCZ095-097-098-100-101-160900-
SOUTHERN COAST

CITY           SKY/WX    TMP DP  RH WIND       PRES   REMARKS
BEAUFORT       FAIR      31  29  92 N7        30.41R
CEDAR ISLAND   NOT AVBL
JACKSONVILLE   FAIR      30  26  85 N6        30.43S
PINEY ISLAND   NOT AVBL
WILMINGTON     FAIR      29  26  89 NW3       30.43F


$$

NCZ011>013-027>030-043-044-078>080-089-090>093-098-160900-
COASTAL PLAIN

CITY           SKY/WX    TMP DP  RH WIND       PRES   REMARKS
AHOSKIE        FOG       26  26 100 CALM      30.45S VSB 3/4
CLINTON        FAIR      26  25  96 CALM      30.46R
ELIZABETHTOWN  NOT AVBL
GOLDSBORO      FAIR      26  21  81 CALM      30.42F
GREENVILLE     FAIR      25  23  93 CALM      30.44S
HAVELOCK       NOT AVBL
KENANSVILLE    FAIR      25  23  93 CALM      30.44S
KINSTON        FAIR      25  24  95 CALM      30.45S
NEW BERN       FAIR      28  25  88 NW3       30.45R
RICHLANDS      FAIR      25  23  92 N3        30.44S
ROCKY MOUNT    FAIR      23  22  96 CALM      30.45R
WASHINGTON     FAIR      27  24  87 CALM      30.44F
WHITEVILLE     FAIR      28  24  86 CALM      30.44S

$$

AMZ130-135-150-152-154-156-158-170-250-252-270-ANZ085-086-088-633-658-670-160900-
MARINE OBSERVATIONS

STATION/POSITION TIME  TEMP    WIND        PRES    WAVE   SWELL
                       AIR SEA DIR/SP/G            HT/PER HT/PER
                 (UTC) (F)     (DEG/KT/KT) (MB)    (FT/S) (FT/S)
CHESAPEAKE LIGHT NOT AVBL
64 E VA BEACH    0750   51 65  330/ 16/ 21 1028.8    7/10   5/10
DUCK             0800   35 38  340/ 15/ 17 1029.0
2 E DUCK         0800      39                N/A     6/10   2/11
OREGON INLET     0800   36 41  340/  9/ 14 1029.5
13E OREGON INLT  0748      45                N/A     8/11   8/11
HATTERAS CG      0800   36 43   20/  9/ 11 1028.8
DIAMOND BUOY     0810   45 67  350/ 16/ 19 1025.7
CAPE LOOKOUT     0800          340/  7/  9 1029.7
BEAUFORT LAB     0800   34 45  350/  9/ 12 1029.8
30 SE NEW RVR IN 0708   44 58   30/  8/ 12 1029.7
30 SE NEW RVR IN 0800      58                N/A     5/10   2/11
27 SE WRIGHTSVLE 0708   45 62   50/ 10/ 16 1029.6
5 SE WRIGHTSVLE  0808   38 47   10/  8/ 12 1029.8
225 S CAPE HAT   0750   65 70   30/ 10/ 14 1025.5    9/11   8/11
41 SE CHARLESTON 0810   51 69   30/ 10/ 14 1029.2

$$




USA.gov is the U.S. government's official web portal to all federal, state and local government web resources and services.